GFSCGP_prec_cloud_021.txt.gz
Cloud_Cover
0 0 0 0 0 1 5 100 85 100 7 1 5 34 2 0 0 0 0 0 0 0 0 0 0 0 0 0 0 0 0 0 0 8 34 11 0 3 5 8 0 13 72 12
0 0 0 0 0 0 4 100 92 100 75 52 41 94 100 0 0 0 4 0 0 0 0 0 0 0 0 0 0 0 0 0 0 17 0 7 38 5 33 78 86 100 63 91
0 0 0 0 0 0 0 30 100 89 72 64 86 94 99 90 1 0 0 0 0 0 0 0 0 0 0 0 0 0 0 0 0 0 8 0 0 1 3 18 8 0 1 26
0 0 0 0 0 0 0 4 73 100 68 100 5 99 73 33 5 0 0 0 0 0 0 0 0 0 0 0 1 1 0 0 0 0 16 2 14 0 0 0 5 1 0 0
0 0 0 0 0 0 0 5 5 75 100 100 67 78 99 100 36 5 0 0 0 0 0 0 0 0 0 0 0 0 0 0 0 0 0 2 0 0 0 0 0 0 0 0
0 0 0 0 0 0 0 4 17 32 100 81 100 82 12 100 100 14 33 1 0 0 0 0 0 0 0 0 0 0 0 0 0 0 0 0 0 0 0 0 0 0 0 0
0 0 0 2 0 0 0 0 16 98 100 52 100 83 100 50 42 42 2 88 2 0 0 0 0 0 0 0 0 0 0 0 0 0 0 0 0 0 0 27 0 0 0 0
0 0 5 1 5 1 0 0 3 8 90 98 99 100 41 86 44 100 99 58 100 28 0 0 0 0 0 0 0 0 0 0 0 0 0 0 0 0 0 0 0 0 0 0
0 0 0 0 4 0 0 0 0 5 83 96 99 56 96 100 96 37 4 2 5 51 0 0 0 0 0 0 0 0 0 0 0 0 0 0 0 0 0 0 0 1 2 0
0 0 0 3 0 0 0 0 0 1 47 100 99 87 82 83 1 5 5 5 5 3 4 0 0 0 0 0 0 0 0 0 0 0 0 0 0 0 0 0 0 0 2 1
0 0 0 0 3 5 4 0 0 3 5 48 100 100 100 100 49 3 0 1 5 5 70 0 0 0 0 0 0 0 0 0 0 0 0 0 0 0 0 0 0 0 4 2
0 0 0 0 0 2 5 0 0 2 0 5 78 100 100 61 69 5 5 65 87 81 14 4 0 0 0 0 0 0 0 0 0 0 0 0 0 0 0 0 0 0 0 0
0 0 1 1 0 0 0 0 2 0 5 4 27 2 98 100 89 49 5 2 26 97 76 63 32 0 0 0 0 0 0 0 0 0 0 0 0 0 0 0 0 0 0 0
0 0 0 0 0 1 0 0 0 0 0 9 3 63 94 65 63 26 2 0 5 12 0 0 0 0 0 0 0 0 0 0 0 0 0 0 0 0 0 0 0 1 5 0
0 0 0 0 5 5 4 0 0 0 0 0 2 53 4 46 29 48 4 0 0 0 0 0 0 0 0 0 0 0 0 0 0 0 0 0 0 0 0 0 0 1 8 22
5 0 1 4 3 5 5 39 5 0 0 0 0 3 24 7 100 93 5 0 0 0 0 0 0 0 0 0 0 0 0 0 0 0 0 0 0 0 0 0 0 5 8 8
51 5 1 1 5 91 41 1 0 34 42 1 0 0 5 20 14 14 9 3 0 0 0 0 0 0 0 0 0 0 0 0 0 0 0 0 0 0 0 2 5 40 54 91
30 45 5 5 46 90 0 28 31 5 5 57 67 3 0 0 4 5 18 12 0 0 0 0 0 0 0 0 0 3 0 0 0 0 0 0 0 0 1 61 47 49 60 98
96 100 44 93 44 90 3 84 64 39 1 14 5 55 5 0 0 5 22 99 50 2 0 0 0 0 0 1 2 4 0 0 0 0 0 0 0 0 10 34 50 23 20 94
100 100 100 100 95 100 99 88 5 4 0 4 6 2 5 1 2 0 54 91 100 88 2 0 0 0 0 0 0 0 0 0 0 0 0 0 0 5 12 63 83 74 100 54
80 100 65 25 100 100 100 47 36 95 58 0 0 0 0 3 0 0 24 4 30 87 5 5 5 5 0 0 0 0 0 0 0 0 0 1 5 30 100 99 100 81 41 99
86 100 100 69 100 100 65 2 20 62 0 0 0 0 0 0 0 4 0 4 5 5 5 5 5 5 5 1 0 0 0 2 5 5 44 100 100 100 100 100 100 86 92 100
77 96 100 100 95 85 14 37 3 0 0 0 2 0 0 0 0 0 0 0 0 0 0 0 3 5 1 0 3 5 4 4 5 95 66 94 100 99 100 100 100 100 100 100
100 100 100 93 5 6 11 14 75 0 0 0 5 0 3 0 0 0 0 0 0 2 0 4 5 0 14 72 63 83 14 10 78 54 100 100 100 100 83 98 94 100 100 100
100 100 100 78 100 22 20 36 5 0 0 61 58 83 56 32 69 11 52 52 77 87 36 7 88 16 100 100 99 10 77 100 100 98 100 100 87 95 69 99 100 100 37 48
100 100 100 100 88 12 3 5 5 15 62 100 69 61 96 99 100 100 100 100 60 5 100 100 100 94 69 100 64 100 100 84 23 98 93 93 100 100 88 80 76 81 81 71

GFSCGP_prec_cloud_024.txt.gz
Cloud_Cover
0 0 0 0 0 0 0 50 10 100 74 100 100 87 100 3 72 0 3 0 0 0 0 0 0 0 0 0 0 0 0 0 5 0 0 0 0 0 0 7 82 41 0 0
0 0 0 0 0 0 0 25 85 100 70 55 89 4 0 88 0 0 0 0 0 0 0 0 0 0 0 0 0 0 0 0 0 0 0 0 4 10 19 16 80 89 35 23
0 0 0 0 0 0 0 0 19 99 85 44 82 87 2 24 1 0 0 0 0 0 0 0 0 0 0 0 0 0 0 0 0 0 0 0 10 11 100 88 98 30 0 0
0 0 0 0 0 0 0 0 10 100 100 4 93 96 2 94 14 0 0 0 0 0 0 0 0 0 0 0 0 0 0 0 0 0 0 0 0 0 17 16 9 16 0 15
0 0 0 0 0 0 0 0 0 87 99 100 54 97 22 100 89 11 0 0 0 0 0 0 0 0 0 0 0 0 0 0 0 0 0 0 0 0 56 4 14 0 0 0
0 0 0 0 0 0 0 0 0 4 74 89 13 78 62 10 100 100 82 1 0 0 0 0 0 0 0 0 0 0 0 0 0 0 0 0 3 0 1 24 0 0 0 0
0 0 0 0 5 0 0 0 0 0 16 48 92 100 12 100 99 93 100 99 5 0 0 0 0 0 0 0 0 0 0 0 0 0 0 0 0 0 0 0 0 0 0 0
0 0 0 0 0 5 2 0 0 0 0 5 0 46 9 64 4 97 100 90 96 8 0 44 0 0 0 0 0 0 0 0 0 0 0 0 0 0 0 0 0 0 0 0
0 0 0 0 0 0 21 0 0 0 3 5 20 68 0 27 53 27 62 97 100 87 23 0 0 0 0 0 0 0 0 0 0 0 0 0 0 0 0 0 0 0 0 0
0 0 0 0 0 0 0 51 1 0 1 2 1 29 100 73 4 100 99 99 87 100 5 2 0 0 0 0 0 0 0 0 0 0 0 0 0 0 0 0 0 0 0 0
0 0 0 0 0 0 0 0 0 0 0 0 0 1 2 88 67 54 10 99 89 76 0 5 0 0 0 0 0 0 0 0 0 0 0 0 0 0 0 0 0 0 0 0
0 0 0 0 0 0 0 0 0 0 0 0 0 0 86 100 97 88 10 100 73 0 0 0 2 0 0 0 0 0 0 0 0 0 0 0 0 0 0 0 0 0 0 0
0 0 0 0 0 0 0 0 0 0 1 0 0 1 5 97 92 100 100 20 2 0 84 94 100 6 0 0 0 0 0 0 0 0 0 0 0 0 0 0 0 0 0 0
9 2 0 0 0 1 0 0 0 0 0 0 0 1 5 100 12 91 99 100 100 12 14 78 36 89 42 0 0 0 0 0 0 0 0 0 0 0 0 0 0 0 0 0
65 2 0 0 0 26 0 4 0 0 0 0 0 0 5 40 100 50 96 53 42 0 0 53 3 5 3 0 0 0 0 0 0 0 0 0 0 0 0 0 0 0 0 3
29 0 0 0 45 13 76 6 5 0 0 0 0 0 5 35 82 100 100 99 98 12 0 0 0 0 0 0 0 0 0 0 0 0 0 0 0 0 0 0 0 0 0 1
5 0 2 0 22 100 85 6 32 50 0 0 0 0 0 58 13 68 99 100 96 99 0 4 1 0 0 0 0 0 0 0 0 0 0 0 0 0 0 0 0 0 0 1
96 3 2 1 96 92 0 0 1 96 100 29 0 0 0 0 4 0 6 95 91 89 48 5 4 0 2 0 0 0 0 0 0 0 0 0 0 0 0 0 0 0 0 11
99 97 81 100 100 29 65 3 88 63 1 2 34 98 4 1 0 0 1 10 2 52 90 95 11 0 0 5 4 5 4 0 1 0 0 0 0 0 0 0 0 0 5 80
100 100 100 100 100 4 4 40 100 11 0 2 4 0 0 24 8 0 0 1 10 8 92 5 1 0 0 1 3 2 2 4 5 5 5 5 5 5 0 0 30 21 37 90
100 100 98 100 100 96 100 100 18 52 2 4 4 0 0 0 0 0 0 0 10 0 2 0 5 1 0 0 0 0 0 0 2 0 0 4 5 5 0 7 75 100 85 100
100 100 100 100 100 100 100 94 96 30 5 5 0 0 0 0 0 0 0 0 0 0 0 0 2 5 19 5 0 0 0 0 3 0 0 0 2 3 14 99 78 74 100 100
100 100 100 100 100 100 100 100 100 76 5 3 3 0 4 0 0 0 0 0 0 0 0 0 3 0 1 5 4 0 0 0 0 1 5 5 5 27 100 92 82 100 100 100
100 100 100 100 100 100 70 55 100 91 100 2 4 0 0 0 0 0 0 0 0 0 0 4 0 0 0 3 5 5 5 5 5 5 12 40 100 72 100 92 100 100 100 100
100 100 100 100 100 35 92 100 99 100 14 0 5 0 0 0 0 0 0 0 0 0 0 1 0 0 0 0 0 1 0 3 23 100 100 100 87 100 100 100 100 100 100 100
100 100 100 100 100 100 71 58 53 10 14 4 4 0 0 0 57 100 100 87 6 0 0 0 0 3 61 16 0 23 45 92 100 83 100 96 100 100 100 89 99 100 100 100

GFSCGP_prec_cloud_027.txt.gz
Cloud_Cover
0 0 0 0 0 0 0 0 0 43 100 100 63 61 52 15 0 0 0 0 0 0 0 0 0 0 0 0 0 0 0 0 0 0 0 0 0 0 0 6 16 68 4 0
0 0 0 0 0 0 0 0 0 87 46 98 78 96 100 84 3 0 0 0 0 0 0 0 0 0 0 0 0 0 0 0 0 0 0 0 0 0 0 12 44 2 32 14
0 0 0 0 0 0 0 0 0 51 91 100 79 45 5 4 0 0 0 0 0 0 0 0 0 0 0 0 0 0 0 0 0 0 0 0 0 0 41 40 62 83 16 0
0 0 0 0 0 0 0 0 0 9 41 91 97 44 90 5 0 3 0 0 0 0 0 0 0 0 0 0 0 0 0 0 0 0 0 0 0 0 0 43 66 0 0 0
0 0 0 0 4 0 0 0 0 0 27 47 100 90 98 5 5 5 5 0 0 0 0 0 0 0 0 0 0 0 0 0 0 0 0 0 0 0 0 0 0 0 0 0
0 0 0 0 0 0 0 0 0 0 13 63 2 98 91 77 31 15 4 5 1 0 0 0 0 0 0 0 0 0 0 0 0 0 0 0 0 0 0 0 0 0 0 0
0 0 0 0 0 0 5 0 0 0 1 0 5 5 0 70 47 3 33 57 18 2 0 0 0 1 0 0 0 0 0 0 0 0 0 0 0 0 0 0 0 0 0 0
0 0 0 0 0 0 0 0 0 0 0 0 0 2 0 28 39 97 16 100 20 23 80 0 5 5 0 0 0 0 0 0 0 0 0 0 0 0 0 0 0 0 0 0
0 0 0 0 0 0 0 0 11 0 0 0 0 0 0 0 1 16 5 31 68 90 98 5 5 0 0 0 0 0 0 0 0 0 0 0 0 0 0 0 0 0 0 0
0 0 0 0 0 0 0 0 0 0 0 0 0 0 0 3 18 4 2 31 100 100 86 87 5 0 0 0 0 0 0 0 0 0 0 0 0 0 0 0 0 0 0 0
0 0 0 0 0 0 0 0 0 0 0 0 0 0 0 4 52 81 44 52 81 39 88 78 2 3 0 0 0 0 0 0 0 0 0 0 0 0 0 0 0 0 0 0
0 0 0 0 0 0 0 0 0 0 0 0 0 2 3 21 82 64 27 99 96 78 7 0 0 0 0 0 0 0 0 0 0 0 0 0 0 0 0 0 0 0 0 0
3 0 3 5 0 0 0 0 0 0 0 0 0 40 100 10 53 6 31 43 39 99 100 4 5 3 0 0 0 0 0 0 0 0 0 0 0 0 0 0 0 0 0 0
85 0 0 1 2 0 0 0 0 0 0 0 0 0 97 100 91 100 27 74 100 99 100 91 16 5 4 0 0 0 0 0 0 0 0 0 0 0 0 0 0 0 0 0
52 1 0 0 0 0 0 0 2 0 0 0 0 0 0 15 100 37 35 90 97 100 29 27 17 5 1 0 3 0 0 0 0 0 0 0 0 0 0 0 0 0 0 0
43 0 0 0 0 0 0 0 0 0 0 0 0 0 0 0 84 100 39 39 70 100 50 100 95 58 0 0 0 0 0 0 0 0 0 0 0 0 0 0 0 5 0 0
97 5 32 0 4 5 2 0 0 5 2 0 0 0 0 0 0 68 100 73 20 97 70 86 98 23 0 0 1 3 0 0 0 0 0 0 1 2 0 0 0 0 2 5
100 96 76 5 59 92 0 2 0 0 21 25 0 0 0 0 0 2 94 98 5 31 89 100 100 100 86 4 0 5 70 9 3 4 5 5 5 5 0 0 2 5 5 5
100 100 100 90 76 2 0 0 0 28 11 69 2 3 0 0 0 0 0 94 46 1 36 87 100 100 100 71 0 3 1 6 5 47 20 5 5 5 5 5 6 5 5 8
100 100 100 100 68 1 0 5 37 100 67 5 5 0 0 0 0 0 0 0 4 95 8 5 96 75 4 29 13 5 2 2 4 5 5 5 5 5 5 5 5 2 0 7
100 100 100 91 8 4 0 7 100 100 0 0 0 1 10 0 0 0 0 0 0 0 2 0 3 3 41 63 70 5 5 74 48 5 0 2 5 4 0 0 0 0 41 98
100 100 100 87 13 88 22 100 100 33 3 6 36 9 0 2 5 4 0 0 0 0 0 0 2 40 4 1 0 0 2 14 6 58 8 5 36 5 5 5 4 31 100 91
100 100 100 100 100 99 98 100 36 26 5 83 5 14 5 70 20 0 0 0 0 0 0 0 0 19 5 12 61 0 0 0 0 0 0 0 5 6 10 29 63 99 100 100
100 100 100 100 37 12 48 100 35 5 69 43 9 59 100 100 92 0 0 0 0 0 0 0 0 0 0 94 100 5 0 0 3 6 30 35 95 69 68 92 100 100 69 42
100 100 100 100 95 100 92 78 84 84 100 100 100 100 69 19 4 2 0 0 0 0 0 19 6 0 2 0 40 100 4 3 70 77 75 88 99 100 93 100 98 97 99 96
100 100 100 100 100 95 100 84 91 100 100 100 100 100 81 7 13 6 0 0 0 4 86 100 91 75 2 1 47 45 2 0 28 66 100 96 100 100 99 100 100 100 100 100

GFSCGP_prec_cloud_030.txt.gz
Cloud_Cover
0 0 0 0 0 0 0 0 0 3 19 84 94 22 84 5 5 2 0 0 0 0 0 0 0 0 0 0 0 0 0 0 0 0 0 0 0 0 0 0 0 100 14 5
0 0 0 0 0 0 0 0 0 0 1 5 39 16 37 20 5 0 1 0 0 0 0 0 0 0 0 0 0 0 0 0 0 0 0 0 0 0 0 0 0 0 0 61
0 0 0 0 0 0 0 0 0 0 0 3 72 78 7 6 5 4 1 0 0 0 0 0 0 0 0 0 0 0 0 0 0 0 0 0 0 0 0 0 0 0 38 9
0 0 0 0 0 0 0 0 3 2 4 33 47 62 39 5 51 6 0 1 0 0 0 0 0 0 0 0 0 0 0 0 0 0 0 0 0 0 0 0 0 0 1 0
0 0 0 0 0 0 0 0 0 3 0 0 41 4 5 66 5 5 0 0 0 0 0 0 0 0 0 0 0 0 0 0 0 0 0 0 0 0 0 0 0 0 0 0
0 0 0 0 0 0 0 0 0 4 32 1 0 0 1 3 2 0 3 4 0 0 0 0 0 0 0 0 0 0 0 0 0 0 0 0 0 0 0 0 0 1 0 0
0 0 0 0 0 0 0 0 0 0 2 0 0 2 0 0 1 0 4 0 0 4 4 0 0 0 0 0 0 0 0 0 0 0 0 0 0 0 0 0 0 0 0 0
0 0 0 0 0 0 0 0 0 0 0 0 0 1 0 4 1 5 3 0 4 2 5 2 0 5 0 0 0 0 0 0 0 0 0 0 0 0 0 0 0 0 0 0
0 0 0 0 0 0 0 0 0 0 0 0 0 0 0 0 5 0 2 5 19 76 16 100 80 14 0 0 0 0 0 0 0 0 0 0 0 0 0 0 0 0 0 0
0 0 0 0 0 0 0 0 0 0 0 0 0 0 5 0 0 0 0 1 1 62 24 100 97 71 58 0 0 0 0 0 0 0 0 0 0 0 0 0 0 0 0 0
7 0 0 0 0 0 0 0 0 0 0 0 0 0 4 3 0 0 0 5 12 4 12 100 100 100 95 1 0 0 0 0 0 0 0 0 0 0 0 0 0 0 0 0
3 5 16 0 0 0 0 0 0 0 0 0 0 20 0 0 2 5 5 19 83 72 72 100 100 100 100 6 0 0 0 0 0 0 0 0 0 0 0 0 0 0 0 0
0 4 53 15 38 12 4 2 0 0 0 0 0 2 0 0 3 0 2 3 48 99 14 70 85 88 93 4 0 0 0 0 0 0 0 0 0 0 0 0 0 0 0 0
0 0 4 100 77 1 5 5 0 5 0 0 0 0 0 0 0 0 5 69 16 44 13 75 27 13 61 50 0 0 0 0 0 0 0 0 0 0 0 0 0 0 0 0
0 0 0 14 5 5 5 5 2 5 0 0 46 0 0 0 0 0 5 5 20 9 40 43 95 67 78 19 0 5 47 5 0 0 0 0 0 0 0 0 0 0 0 0
0 0 0 1 21 5 5 4 4 18 5 6 8 0 0 0 0 0 5 4 0 4 19 2 3 64 4 5 5 3 5 0 0 0 0 0 0 0 0 0 0 0 0 4
23 0 0 0 0 0 0 29 52 5 5 5 4 40 6 0 0 0 0 0 4 5 1 0 52 19 5 4 5 3 9 7 2 4 0 0 0 0 0 0 3 34 3 5
100 34 0 0 0 3 1 19 0 5 5 5 5 5 5 5 5 0 0 1 5 92 32 21 0 2 5 71 32 5 6 80 5 2 2 0 0 0 0 6 7 41 66 11
100 100 76 1 13 1 0 0 0 0 5 5 19 6 51 5 0 0 0 0 0 8 51 6 3 5 5 70 99 70 5 26 93 6 0 0 0 0 0 10 28 46 70 54
100 100 100 98 94 55 0 0 0 0 0 4 62 56 5 68 4 0 5 0 0 0 0 0 0 2 58 9 5 94 46 100 100 100 94 5 0 0 25 7 16 51 30 18
100 100 100 100 94 30 0 3 5 66 3 0 5 5 14 12 38 8 5 5 0 0 0 0 0 0 0 1 3 5 90 100 84 79 92 98 2 0 78 91 56 50 26 41
100 100 100 100 95 96 10 0 4 9 0 0 0 0 0 5 5 83 100 12 5 36 0 0 0 0 0 0 1 0 5 5 93 100 99 100 5 0 2 6 85 84 46 89
100 100 100 100 100 100 86 51 4 3 0 0 0 0 0 5 24 95 100 100 96 30 5 5 0 0 1 75 8 5 1 5 17 33 97 100 100 75 39 0 81 90 96 100
100 100 100 100 100 100 41 20 91 9 0 3 1 4 2 5 5 88 100 100 100 100 35 24 20 23 4 0 43 60 99 82 5 72 66 22 24 91 99 78 97 99 100 100
100 100 100 100 100 100 70 68 30 77 32 20 0 4 7 54 5 22 90 95 91 100 67 92 69 99 100 71 11 0 0 22 95 69 85 93 100 100 100 100 100 100 100 100
100 100 100 100 100 100 97 95 58 78 16 73 59 30 99 96 52 5 27 8 6 15 13 11 26 47 100 100 100 99 100 100 99 100 100 100 100 100 100 100 100 100 100 100

GFSCGP_prec_cloud_033.txt.gz
Cloud_Cover
0 0 0 0 0 0 0 0 0 5 3 0 0 0 5 60 16 38 5 5 0 0 0 0 0 0 0 0 0 0 0 0 0 0 0 0 0 0 0 0 0 0 17 0
0 0 0 0 0 0 0 0 0 5 0 0 0 2 5 14 98 5 69 4 0 0 0 0 0 0 0 0 0 0 0 0 0 0 0 0 0 0 0 0 0 0 80 95
0 0 0 0 0 0 0 0 0 5 4 5 0 0 1 4 48 6 2 1 0 0 0 0 0 0 0 0 0 0 0 0 0 0 0 0 0 0 0 0 0 0 0 23
0 0 0 0 0 0 0 0 0 3 5 5 0 0 0 2 5 2 5 0 0 0 0 0 0 0 0 0 0 0 0 0 0 0 0 0 0 0 0 0 0 0 0 51
0 0 0 0 0 0 0 0 0 0 5 4 0 0 0 1 2 0 0 0 1 2 0 0 0 0 0 0 0 0 0 0 0 0 0 0 0 0 0 0 0 0 0 0
0 0 0 0 0 0 0 0 0 0 2 2 0 0 0 0 0 0 0 0 0 5 1 0 0 0 0 0 0 0 0 0 0 0 0 0 0 0 0 0 0 0 8 0
0 0 0 0 0 0 0 0 0 0 0 4 0 0 0 0 0 0 0 2 2 0 5 1 0 0 0 0 0 0 0 0 0 0 0 0 0 0 0 0 0 7 13 6
0 0 0 0 0 0 0 0 0 0 0 0 0 0 0 0 3 5 0 5 5 3 1 5 1 0 0 0 0 0 0 0 0 0 0 0 0 0 0 0 0 0 0 0
0 0 0 0 0 0 0 0 0 0 0 0 0 4 0 0 4 5 0 5 4 5 5 5 5 5 5 0 0 0 0 0 0 0 0 0 0 0 0 0 0 0 0 0
0 0 0 0 0 0 0 0 0 0 0 0 0 2 1 0 0 1 0 0 0 1 5 6 6 5 5 5 0 0 0 0 0 0 0 0 0 0 0 0 0 0 0 0
0 0 0 0 1 2 0 0 0 0 0 0 0 5 53 24 0 0 0 0 0 0 0 5 73 13 24 6 1 1 0 0 0 0 0 0 0 0 0 0 0 0 0 0
0 5 4 0 6 0 0 0 0 0 0 0 0 0 0 4 2 0 0 0 0 0 0 10 100 87 78 16 14 0 0 0 0 0 0 0 0 0 0 0 0 0 0 0
3 2 5 1 5 14 8 4 0 4 0 0 0 0 0 0 0 0 4 3 0 0 0 0 23 27 36 57 6 48 4 0 0 0 0 0 0 0 0 0 0 0 0 0
0 2 5 5 1 8 28 6 5 0 0 0 0 0 0 0 0 0 0 1 5 0 0 0 1 29 100 95 5 92 100 24 0 0 0 0 0 0 0 0 0 0 0 0
0 0 1 5 5 1 94 98 5 5 5 0 100 1 2 0 0 0 0 0 0 5 4 2 3 46 89 72 93 25 3 9 4 0 0 0 0 0 0 0 0 0 0 0
0 0 0 0 4 4 0 6 66 96 72 5 94 5 83 6 0 0 0 0 0 0 5 5 0 0 6 73 97 92 5 5 5 5 4 0 0 0 0 0 0 0 0 0
0 0 0 0 0 0 0 81 99 77 15 95 20 84 94 10 0 0 0 0 0 0 0 0 5 5 4 41 100 95 82 17 32 82 96 4 5 0 0 0 0 0 0 0
5 3 0 0 0 0 8 23 0 2 6 5 59 37 5 5 8 0 0 0 0 0 0 0 0 2 6 16 16 100 100 71 14 93 37 9 19 2 0 0 0 2 4 3
100 100 9 0 0 0 0 0 0 0 5 4 5 5 20 6 5 23 4 3 4 0 0 0 0 0 0 0 4 5 6 18 77 90 29 64 90 0 0 0 0 2 70 67
100 100 100 58 5 0 0 0 0 0 0 1 8 52 93 37 5 66 5 5 4 0 0 0 0 0 0 0 4 2 3 28 11 59 13 100 5 6 26 1 0 0 24 38
91 100 100 19 60 1 0 0 0 0 2 1 4 5 3 19 93 24 63 5 5 5 0 3 3 0 0 1 0 0 5 5 49 100 87 94 100 100 19 6 3 24 65 100
28 94 100 77 91 5 0 5 76 46 32 0 0 2 5 24 23 86 93 80 42 0 0 0 0 0 5 5 5 0 0 0 1 2 81 63 73 100 99 43 38 64 98 100
83 100 35 100 25 0 25 6 100 100 78 0 0 4 5 4 29 48 7 84 97 6 1 0 0 0 0 0 0 0 0 0 0 0 0 1 11 58 49 98 74 99 100 100
51 5 2 100 100 22 100 100 100 99 9 1 0 0 0 1 4 26 71 99 87 65 98 36 65 100 100 99 21 0 0 0 0 0 3 86 100 100 100 99 66 100 100 100
75 82 3 5 100 100 91 97 100 100 15 5 13 8 41 9 51 32 48 49 95 73 39 72 100 100 100 100 100 100 86 0 0 0 4 76 97 100 100 97 100 100 100 100
100 92 5 5 88 100 100 63 99 100 49 94 15 96 20 22 48 60 69 62 16 27 26 47 99 100 100 83 88 100 78 53 76 95 99 100 100 100 100 100 100 100 100 100

GFSCGP_prec_cloud_036.txt.gz
Cloud_Cover
0 0 0 0 0 0 0 0 0 0 5 0 0 0 5 24 30 5 5 4 0 0 0 0 0 0 0 0 0 0 0 0 0 0 0 0 0 0 0 0 0 0 0 0
0 0 0 0 0 0 0 0 0 0 1 0 0 4 2 1 16 39 98 100 2 0 0 0 0 0 0 0 0 0 0 0 0 0 0 0 0 0 0 0 0 0 1 7
0 0 0 0 0 0 0 0 0 0 5 2 0 0 4 48 1 8 5 57 9 0 0 0 0 0 0 0 0 0 0 0 0 0 0 2 0 2 0 0 0 0 0 13
0 0 0 0 0 0 0 0 0 0 0 2 3 0 0 28 2 5 5 1 2 0 0 0 0 0 0 0 0 0 0 0 0 0 0 0 0 0 0 0 0 0 0 0
0 0 0 0 0 0 0 0 0 0 0 0 3 0 0 0 0 5 5 4 0 0 0 0 0 0 0 0 0 0 0 0 0 0 0 0 0 0 0 0 0 0 0 0
0 0 0 0 0 0 0 0 0 0 0 5 0 0 0 0 4 2 0 0 0 0 0 0 0 0 0 0 0 0 0 0 0 0 0 0 0 0 0 0 0 0 0 0
0 0 0 0 0 0 0 0 0 0 0 99 0 0 0 1 1 0 0 1 3 3 0 0 0 0 0 0 0 0 0 0 0 0 0 0 0 0 0 0 0 0 1 10
0 0 0 0 0 0 0 0 0 0 0 0 0 49 0 5 0 4 84 98 38 5 5 2 0 0 0 0 0 0 0 0 0 0 0 0 0 0 0 0 0 0 0 0
0 0 0 0 0 0 0 0 0 0 0 0 2 5 0 2 4 35 91 8 1 4 5 0 3 0 1 1 0 0 0 0 0 0 0 0 0 0 0 0 0 0 0 0
0 0 0 0 0 0 0 0 0 0 0 0 0 0 4 0 0 5 33 2 1 5 57 40 5 4 5 5 2 0 0 0 0 0 0 0 0 0 0 0 0 0 0 0
0 0 0 0 0 0 0 0 0 0 0 0 0 0 4 0 0 0 3 5 5 5 4 39 45 86 65 99 22 4 0 0 0 0 0 0 0 0 0 0 0 0 0 0
0 0 0 0 0 0 0 0 0 0 0 0 0 0 0 0 0 3 0 0 42 8 32 4 12 64 100 83 96 5 2 5 0 0 0 0 0 0 0 0 0 0 0 0
0 0 0 0 0 0 0 0 0 0 0 0 0 30 0 0 0 0 4 3 1 0 0 3 5 5 5 52 98 5 2 10 0 0 0 0 0 0 0 0 0 0 0 0
0 0 0 0 0 0 0 0 19 2 0 0 0 98 0 0 0 0 0 0 5 2 0 0 0 5 0 0 5 5 5 5 5 5 0 0 0 0 0 0 0 0 0 0
0 0 0 0 0 0 4 5 5 98 41 0 20 10 1 0 0 0 0 0 5 72 61 2 0 0 0 0 0 0 1 41 5 5 96 68 96 9 0 0 0 0 0 0
0 0 0 0 0 0 0 17 73 100 55 0 20 0 0 0 0 0 0 0 0 3 60 26 5 5 1 0 3 1 5 92 34 94 78 2 1 20 5 0 0 0 0 0
0 0 0 0 0 0 0 5 66 81 67 100 80 7 5 0 0 0 0 0 0 0 0 28 92 17 58 42 5 5 65 87 5 1 1 0 0 0 0 0 0 22 34 0
5 5 2 0 0 0 0 1 3 0 4 22 68 33 5 0 0 0 0 0 0 0 0 0 0 5 5 3 9 5 5 5 42 34 79 84 63 35 17 11 2 9 2 0
96 69 4 0 0 0 0 0 0 0 5 23 96 7 16 5 0 0 0 0 0 0 0 0 0 0 0 0 0 0 0 0 2 4 10 29 85 13 2 2 5 0 0 0
57 100 50 4 0 0 0 0 0 0 4 5 19 27 17 43 8 5 0 0 0 0 0 0 0 0 0 0 0 0 0 0 0 0 0 1 80 5 5 50 24 7 0 5
2 37 8 5 5 0 0 0 0 0 83 5 27 73 24 63 96 31 5 5 2 0 0 0 0 0 0 0 0 0 0 0 0 0 5 7 100 38 46 99 94 38 94 100
1 6 29 54 5 0 0 0 0 0 6 4 82 28 65 95 86 94 42 5 5 5 5 4 1 0 0 0 0 0 1 29 34 6 78 100 100 100 65 92 86 100 100 100
12 1 4 3 0 0 0 0 0 32 9 6 99 34 7 73 100 98 32 20 5 5 17 5 32 100 88 8 0 0 4 5 64 37 47 100 100 100 92 96 96 68 93 100
5 5 28 28 1 0 0 0 0 0 0 100 100 100 0 3 25 49 77 95 100 100 100 100 99 100 100 100 80 78 3 2 5 85 98 8 0 0 4 13 66 100 100 100
37 10 1 36 4 27 1 0 0 2 2 100 100 100 83 68 100 100 100 100 100 100 100 100 100 100 100 79 58 81 50 0 0 5 0 10 35 95 100 100 100 100 100 100
81 14 71 3 2 5 4 0 2 45 55 100 96 100 100 100 100 100 100 100 100 100 100 100 100 100 100 100 100 98 70 86 100 100 100 100 100 100 100 80 99 100 100 100

GFSCGP_prec_cloud_039.txt.gz
Cloud_Cover
0 0 0 0 0 0 0 0 3 0 3 0 0 0 0 5 5 2 5 5 0 0 0 0 0 0 0 0 0 0 0 0 0 0 0 0 0 0 0 0 0 0 0 0
0 0 0 0 0 0 0 0 0 0 3 0 0 0 0 4 12 31 90 64 26 0 0 0 0 0 0 0 0 0 0 0 0 0 0 0 0 0 0 0 0 0 0 0
0 0 0 0 0 0 0 0 0 0 0 0 0 0 0 9 4 14 30 67 82 2 0 0 0 0 0 0 0 0 0 0 0 0 0 0 0 0 0 0 0 0 0 4
0 0 0 0 0 0 0 0 0 0 0 0 0 0 0 5 4 0 3 5 4 0 0 0 0 0 0 0 0 0 0 0 0 0 0 0 0 0 0 0 0 0 0 0
0 0 0 0 0 0 0 0 0 0 0 0 0 0 0 0 0 4 5 0 0 0 0 0 0 0 0 0 0 0 0 0 0 0 0 0 0 0 0 0 0 0 0 0
0 0 0 0 0 0 0 0 0 0 0 6 0 0 0 0 4 5 5 0 0 0 0 0 0 0 0 0 0 0 0 0 0 0 0 0 0 0 0 0 0 0 0 0
0 0 0 0 0 0 0 0 0 0 0 35 0 0 0 0 3 5 3 0 0 2 0 0 0 0 0 0 0 0 0 0 0 0 0 0 0 0 0 0 0 0 0 0
0 0 0 0 0 0 0 0 0 0 0 0 0 0 0 0 4 0 3 0 0 3 0 0 0 0 0 0 0 0 0 0 0 0 0 0 0 0 0 0 0 0 0 0
0 0 0 0 0 0 0 0 0 0 0 0 0 0 0 0 0 0 0 0 0 5 4 0 0 0 0 0 0 0 0 0 0 0 0 0 0 0 0 0 0 0 0 0
0 0 0 0 0 0 0 0 0 0 0 0 0 0 0 0 0 0 2 5 5 0 0 0 0 0 0 0 0 0 0 0 0 0 0 0 0 0 0 0 0 0 0 0
0 0 0 0 0 0 0 0 0 0 0 0 0 0 0 0 0 0 2 2 6 0 0 0 5 5 1 5 5 5 0 0 0 0 0 0 0 0 0 0 0 0 0 0
0 0 0 0 0 0 0 0 0 0 0 0 0 0 0 0 0 0 2 66 95 70 8 81 38 6 5 5 5 5 5 0 0 0 0 0 0 0 0 0 0 0 0 0
0 0 0 0 0 0 0 0 0 0 0 0 0 0 0 0 0 0 0 0 1 78 49 5 5 5 5 4 1 4 5 80 1 0 0 0 0 0 0 0 0 0 0 0
0 0 0 0 0 0 0 0 0 0 0 0 0 0 0 0 0 0 4 0 0 0 4 4 3 5 5 5 5 5 3 5 84 5 52 1 1 0 0 0 0 0 0 0
0 0 0 0 0 0 0 0 0 0 5 0 94 1 0 0 0 0 0 0 0 0 3 5 0 0 4 4 0 2 0 5 2 89 83 98 7 100 92 1 1 26 5 4
0 0 0 0 0 0 0 0 0 0 5 44 98 1 0 0 0 0 0 0 0 1 0 0 0 0 0 4 4 0 2 0 0 0 0 2 1 9 5 70 50 0 0 0
0 0 0 0 0 0 0 0 0 2 5 22 100 100 0 0 0 0 0 0 0 0 0 0 0 0 1 5 1 0 0 0 5 0 6 13 3 0 0 2 1 0 0 0
4 2 0 0 0 0 0 0 0 0 5 39 100 97 0 0 0 0 0 0 0 0 0 0 0 0 0 0 0 0 4 3 2 2 6 7 4 20 4 4 2 2 0 0
89 6 4 0 0 0 0 0 0 0 6 96 100 100 50 0 0 0 0 0 0 0 0 0 0 0 0 0 0 0 0 0 0 7 88 5 5 4 3 4 5 3 0 5
92 90 5 0 0 0 0 0 0 0 5 96 99 100 100 13 2 0 0 0 0 0 0 0 0 0 0 0 0 0 0 0 0 0 4 5 92 98 30 5 10 100 83 100
41 28 4 5 1 0 0 0 0 0 11 5 79 22 53 7 5 2 0 0 0 0 0 0 0 0 0 0 0 0 0 0 0 0 0 0 0 3 31 92 99 100 91 88
0 6 15 3 1 0 0 0 0 0 4 0 4 9 5 5 5 4 0 0 0 0 0 0 0 0 0 0 0 0 0 0 0 0 0 0 0 0 1 5 95 84 100 100
12 3 12 3 0 0 0 0 0 0 0 0 0 0 5 5 5 5 0 0 0 4 4 3 0 0 0 0 0 2 4 1 0 0 0 0 0 0 0 7 49 100 100 100
38 5 33 9 0 0 0 0 0 0 0 0 0 0 0 7 5 5 0 0 0 3 5 4 5 60 62 14 0 5 5 5 5 2 0 1 5 4 17 20 20 27 7 12
9 54 44 6 3 0 0 0 0 0 0 0 0 46 31 96 2 5 5 51 75 90 68 45 26 25 32 80 100 35 0 5 0 2 14 8 76 78 100 84 69 71 90 36
35 9 16 2 1 5 1 8 2 0 0 0 8 27 95 100 41 44 97 100 100 100 100 100 100 100 100 100 100 100 63 16 37 94 100 100 100 85 23 45 100 100 100 100

GFSCGP_prec_cloud_042.txt.gz
Cloud_Cover
0 0 0 0 0 0 0 0 0 3 7 21 5 100 7 5 2 5 0 2 0 0 0 0 0 0 0 0 0 0 0 0 0 0 0 0 0 0 0 0 0 0 0 0
0 0 0 0 0 0 0 0 0 5 2 1 0 64 6 5 0 5 0 0 0 0 0 0 0 0 0 0 0 0 0 0 1 0 0 0 0 0 0 0 0 0 0 0
0 0 0 0 0 0 0 0 0 4 3 0 0 0 2 5 0 0 3 5 3 5 0 0 0 0 0 0 0 0 0 0 2 0 0 0 0 0 0 0 0 0 0 0
0 0 0 0 0 0 0 0 0 1 4 0 0 0 4 5 3 0 5 5 2 0 0 0 0 0 0 0 0 0 0 1 9 0 0 0 0 0 0 0 0 0 0 0
0 0 0 0 0 0 0 0 0 0 0 2 0 0 0 2 3 0 0 0 0 0 0 0 0 0 0 0 0 0 0 0 0 0 0 0 0 0 0 0 0 0 0 0
0 0 0 0 0 0 0 0 0 0 0 0 0 0 0 0 0 5 3 5 0 0 0 0 0 0 0 0 0 0 0 0 0 0 0 0 0 0 0 0 0 0 0 0
0 0 0 0 0 0 0 0 0 0 0 2 7 0 0 0 0 0 2 5 1 0 0 0 0 0 0 0 0 0 0 0 0 0 0 0 0 0 0 0 0 0 0 0
0 0 0 0 0 0 0 0 0 0 0 0 0 0 0 0 0 0 2 2 4 0 0 0 0 0 0 0 0 0 0 0 0 0 0 0 0 0 0 0 0 0 0 0
0 0 0 0 0 0 0 0 0 0 0 0 0 0 0 0 0 0 0 0 0 0 0 0 0 0 0 0 0 0 0 0 0 0 0 0 0 0 0 0 0 0 0 0
0 0 0 0 0 0 0 0 0 0 0 0 0 0 0 0 0 0 0 0 0 0 0 0 0 0 0 0 0 0 0 0 0 0 0 0 0 0 0 0 0 0 0 0
0 0 0 0 0 0 0 0 0 0 0 0 0 0 0 0 0 0 0 0 0 0 0 0 0 0 0 0 0 0 0 0 0 0 0 0 0 0 0 0 0 0 0 0
0 0 0 0 0 0 0 0 0 0 0 0 0 0 0 0 0 0 0 0 0 0 2 0 0 0 0 0 0 0 0 0 0 0 0 0 0 0 0 0 0 0 0 0
0 0 0 0 0 0 0 0 0 5 0 0 0 0 0 0 0 0 1 0 0 0 0 4 0 0 0 0 0 0 0 0 0 1 1 0 0 0 0 0 0 0 0 0
0 0 0 0 0 0 0 0 0 5 0 0 1 0 0 0 0 0 5 5 0 0 0 0 0 0 0 2 0 0 2 2 4 0 5 56 5 0 0 0 1 0 0 0
0 0 0 0 0 0 0 0 0 4 5 0 3 0 0 0 0 0 0 5 4 0 0 1 5 5 5 4 4 4 5 4 1 1 11 6 5 1 0 0 4 0 0 0
0 0 0 0 0 0 0 0 0 3 51 57 26 0 5 0 0 0 0 0 3 5 5 5 5 5 5 5 5 3 1 0 0 0 1 5 0 0 2 0 0 0 0 0
0 0 0 0 0 0 0 0 0 2 67 94 91 5 8 4 0 0 0 0 0 0 3 1 5 5 5 5 3 0 0 0 0 0 0 3 0 1 0 0 0 0 0 0
0 0 0 0 0 0 0 0 0 0 51 94 100 5 2 0 0 0 0 0 0 0 0 0 0 5 35 11 3 0 0 0 0 0 0 0 0 38 24 4 0 0 0 0
31 0 0 0 0 0 0 0 0 0 23 100 100 6 5 0 0 0 0 0 0 0 0 0 0 0 0 1 3 5 2 0 0 0 0 0 3 0 0 0 0 1 5 19
100 16 2 4 0 0 0 0 0 0 2 100 100 100 46 4 0 0 0 0 0 0 0 0 0 0 0 0 0 0 0 0 0 0 0 0 0 0 0 0 5 30 18 17
33 82 17 5 3 0 0 0 0 0 9 5 94 17 22 19 1 0 0 0 0 0 0 0 0 0 0 0 0 0 0 0 0 0 0 0 0 0 0 0 5 4 4 5
89 42 4 5 5 1 0 0 0 14 0 1 74 97 5 5 4 0 0 0 0 0 0 0 0 0 0 0 0 0 0 0 0 0 0 0 0 0 0 0 0 0 3 4
4 20 13 3 0 0 0 0 0 0 0 0 2 52 79 5 5 4 0 0 0 0 0 0 0 0 0 0 0 0 0 0 0 0 0 0 0 0 0 0 1 21 34 2
5 21 26 8 3 0 5 0 0 0 0 0 0 5 5 5 5 5 1 0 0 0 0 0 0 0 0 0 0 0 0 0 0 0 0 0 0 0 0 0 0 0 0 8
11 70 52 5 5 5 5 5 0 0 0 0 0 0 2 5 5 5 0 0 0 0 0 0 0 0 1 4 0 0 0 0 0 0 0 0 0 0 0 2 12 6 8 21
20 8 14 5 4 13 5 5 5 2 3 0 0 0 0 2 5 1 0 0 12 29 36 4 35 81 99 100 99 41 0 0 0 0 0 0 0 0 0 12 36 97 79 100

GFSCGP_prec_cloud_045.txt.gz
Cloud_Cover
0 0 0 0 0 0 0 0 3 49 100 2 96 41 56 79 34 99 80 0 0 0 0 0 0 0 0 0 0 0 0 0 0 0 0 0 0 0 0 0 0 0 5 65
0 0 0 0 0 0 0 0 2 3 100 95 99 100 43 89 80 10 97 0 0 0 0 0 0 0 0 0 0 0 0 0 0 0 0 0 0 0 0 0 0 0 2 97
0 0 0 0 0 0 0 0 0 2 5 100 100 100 74 26 77 67 13 2 0 0 0 0 0 0 0 0 0 0 0 0 0 0 0 0 0 0 0 0 0 0 7 25
0 0 0 0 0 0 0 0 0 3 64 77 91 94 43 5 34 23 12 5 1 0 0 0 0 0 0 0 0 0 0 0 0 0 0 0 0 0 0 0 0 2 0 4
0 0 0 0 0 0 0 0 0 0 4 61 84 77 7 32 5 5 5 5 5 0 0 0 0 0 0 0 0 0 0 0 0 0 0 0 0 0 0 0 0 0 2 0
0 0 0 0 0 0 0 0 0 0 0 0 1 5 5 46 50 74 5 5 5 0 0 0 0 0 0 0 0 0 0 0 0 0 0 0 0 0 0 0 0 0 0 0
0 0 0 0 0 0 0 0 0 0 0 0 0 0 0 5 5 5 5 31 5 0 0 0 0 0 0 0 0 0 0 0 0 0 0 0 0 0 0 0 0 0 0 0
0 0 0 0 0 0 0 0 0 0 0 0 0 0 0 2 5 5 5 34 5 0 0 0 0 0 0 0 0 0 0 0 0 0 0 0 0 0 0 0 0 0 0 0
0 0 0 0 0 0 0 0 0 0 0 0 0 0 0 0 0 0 0 4 5 5 0 0 0 0 0 0 0 0 0 0 0 0 0 0 0 0 0 0 0 0 0 0
0 0 0 0 0 0 0 0 0 0 0 0 0 0 0 0 0 0 0 0 0 5 0 0 0 0 0 0 0 0 0 0 0 0 0 0 0 0 0 0 0 0 0 0
0 0 0 0 0 0 0 0 0 0 0 0 0 0 0 0 0 0 0 0 0 0 2 0 0 0 0 0 0 0 0 0 0 0 0 0 0 0 0 0 0 0 0 0
0 0 0 0 0 0 0 0 0 0 0 0 0 0 0 0 0 0 5 1 1 0 5 4 0 0 0 0 0 0 0 0 0 0 0 0 0 0 0 0 0 0 0 0
5 0 0 1 5 0 0 0 0 0 0 0 0 0 0 0 0 0 2 0 2 4 3 5 2 0 0 0 0 0 0 0 0 0 0 0 0 0 0 0 0 0 0 0
0 0 0 0 0 0 0 0 0 0 0 0 0 0 0 0 0 0 3 1 0 0 5 6 6 0 0 0 0 0 0 0 0 0 0 0 3 2 0 0 0 0 0 0
0 0 0 0 100 3 0 0 0 0 2 5 1 0 0 0 0 0 0 4 0 0 0 0 0 0 0 0 0 0 0 0 0 0 0 0 5 0 2 0 0 0 0 0
52 0 0 0 90 5 0 0 0 0 0 35 5 2 0 0 0 0 0 0 0 0 2 3 0 0 0 0 0 4 3 0 0 0 0 0 5 3 5 2 0 0 0 0
24 2 44 37 37 8 0 0 0 0 2 25 60 0 0 0 0 0 0 0 0 0 0 0 0 0 0 0 0 4 5 1 0 0 0 2 4 4 4 5 3 0 0 0
53 46 100 79 71 20 0 0 0 0 0 15 99 13 0 0 0 0 0 0 0 0 0 0 4 5 2 0 0 0 0 0 0 0 0 0 0 0 0 2 0 0 0 0
12 65 90 14 11 9 0 0 0 0 0 5 8 67 5 1 0 0 0 0 0 0 0 0 0 1 0 0 0 0 0 0 0 0 0 0 0 0 0 4 5 4 0 0
99 18 56 99 92 100 89 90 2 0 0 0 5 54 5 0 0 0 0 0 0 0 0 0 0 0 0 3 3 0 0 0 0 0 0 0 0 1 0 0 0 0 0 0
98 89 58 59 97 82 100 100 17 0 2 0 0 12 44 4 0 0 0 0 0 0 0 0 0 0 0 0 0 0 0 0 0 0 0 0 1 0 0 0 0 0 0 0
100 96 99 37 91 80 64 95 99 61 1 0 0 2 81 79 6 0 0 0 0 0 0 0 0 0 0 0 0 0 0 0 0 0 0 0 0 0 0 0 0 0 0 0
57 100 99 100 57 4 7 100 80 96 5 0 0 0 18 100 90 2 0 0 0 0 0 0 0 0 0 0 0 0 0 0 0 0 0 0 0 0 0 0 0 0 0 0
72 5 63 98 5 47 5 1 3 0 4 3 0 0 73 100 100 44 1 0 0 0 0 0 0 0 0 0 0 0 0 0 0 0 0 0 0 0 0 0 0 0 0 6
100 98 80 14 1 4 5 3 5 0 0 0 0 0 0 73 100 100 27 5 0 0 0 0 0 0 0 0 0 0 0 0 0 0 0 0 0 0 0 0 12 14 43 28
80 93 99 38 83 61 5 5 2 0 0 0 0 0 0 9 94 100 100 53 6 2 7 0 0 2 35 5 41 4 0 0 0 0 0 0 0 0 0 2 2 93 89 100

GFSCGP_prec_cloud_048.txt.gz
Cloud_Cover
0 0 0 0 0 0 3 37 3 5 46 95 3 74 4 98 100 100 82 94 0 0 0 0 0 0 0 0 0 0 0 0 0 0 0 0 0 0 0 0 0 0 0 0
0 0 0 0 0 0 0 1 4 0 48 30 97 67 85 100 100 100 68 89 23 0 0 0 0 0 0 0 0 0 0 0 0 0 0 0 0 0 0 0 1 8 2 0
0 0 0 0 0 0 0 0 0 11 70 40 58 14 100 26 99 100 100 51 0 0 0 0 0 0 0 0 0 0 0 0 0 0 0 0 0 0 0 0 0 22 6 5
0 0 0 0 0 0 0 0 0 59 42 48 50 25 6 4 36 75 100 71 0 0 0 0 0 0 0 0 0 0 0 0 0 0 0 0 0 0 0 0 0 0 0 0
0 0 0 0 0 0 0 0 0 3 86 98 22 85 79 9 6 4 31 0 4 0 0 0 0 0 0 0 0 0 0 0 0 0 0 0 0 0 0 0 0 0 0 0
0 0 0 0 0 0 0 0 0 0 3 3 9 100 5 52 3 4 5 0 3 0 0 0 0 0 0 0 0 0 0 0 0 0 0 0 0 0 0 0 0 0 0 0
0 0 0 0 0 0 0 0 0 0 0 0 0 60 2 40 8 36 5 29 93 6 0 0 0 0 0 0 0 0 0 0 0 0 0 0 0 0 0 0 0 0 0 0
0 0 0 0 0 0 0 0 0 0 0 0 0 0 0 7 98 93 99 50 95 14 3 0 0 0 0 0 0 0 0 0 0 0 0 0 0 0 0 0 0 0 0 0
0 0 0 0 0 0 0 0 0 0 0 0 0 0 0 0 1 24 96 100 58 5 7 0 0 0 0 0 0 0 0 0 0 0 0 0 0 0 0 0 0 0 0 0
0 2 0 0 0 0 0 0 0 0 0 0 0 0 0 0 0 0 0 99 16 54 6 3 0 0 0 0 0 0 0 0 0 0 0 0 0 0 0 0 0 0 0 0
0 0 0 0 0 0 0 0 0 0 0 0 0 1 0 0 0 0 0 0 0 89 10 5 0 0 0 0 0 0 0 0 0 0 0 0 0 0 0 0 0 0 0 0
2 0 0 8 0 0 0 0 0 0 0 0 0 17 7 0 0 0 0 5 0 8 99 5 0 0 0 0 0 0 0 0 0 0 0 0 0 0 0 0 0 0 0 0
93 0 0 5 46 2 0 0 0 0 0 0 0 0 0 0 0 0 0 5 1 0 86 36 5 0 0 0 0 0 0 0 0 0 0 0 0 0 0 0 0 0 0 0
45 0 0 0 0 0 0 0 0 0 0 0 0 0 0 0 0 0 0 4 5 0 0 41 54 2 0 0 0 0 0 0 0 0 0 0 0 0 0 0 0 0 0 0
65 0 0 2 4 99 1 0 0 0 0 0 0 0 0 0 0 0 0 0 5 5 19 100 63 17 2 0 0 0 0 0 0 0 0 0 5 5 0 0 0 0 0 0
71 3 3 5 5 100 100 1 0 0 0 0 0 45 0 0 0 0 0 0 1 5 5 5 5 34 97 40 0 0 0 0 0 0 0 0 5 2 2 0 0 0 0 0
89 81 8 0 5 18 98 10 26 0 0 0 0 27 47 0 0 0 0 0 0 0 0 4 1 5 1 0 0 0 0 0 0 0 0 0 2 0 0 3 0 0 0 0
100 100 35 5 91 100 18 32 0 0 0 0 0 42 100 76 4 0 0 0 0 0 0 0 0 0 0 0 0 0 0 0 0 0 0 0 0 0 0 0 0 0 0 0
100 98 97 44 100 37 94 5 4 0 0 100 58 25 100 8 4 0 0 0 0 0 0 0 0 0 0 0 0 0 0 0 0 0 0 0 0 0 0 0 0 0 0 0
100 100 89 16 100 86 99 100 91 7 0 86 100 60 2 2 0 0 0 0 0 0 0 0 0 4 5 16 15 5 0 0 0 0 0 0 1 1 0 0 0 0 0 0
100 100 100 38 40 100 100 100 100 56 45 63 4 5 4 0 0 0 0 0 0 0 0 0 0 0 0 5 5 5 5 5 0 0 2 0 5 5 5 0 0 0 0 2
96 100 97 100 7 100 100 100 100 100 70 2 0 0 0 0 0 0 0 0 0 0 0 0 0 0 0 0 0 37 96 80 5 5 5 5 5 5 2 0 0 0 0 0
95 54 96 100 22 100 93 100 100 73 100 71 0 0 0 0 0 1 0 0 5 0 0 0 0 0 0 0 0 0 0 0 0 0 0 0 0 0 0 0 0 0 0 0
69 100 100 91 13 81 100 59 58 12 5 5 5 0 0 0 0 5 1 0 0 2 0 0 0 0 0 0 0 0 0 0 0 0 0 0 0 0 0 0 0 0 0 1
15 52 82 77 46 75 18 7 2 4 0 0 4 5 1 0 1 5 5 0 0 0 0 0 46 0 0 0 0 0 0 0 0 0 0 0 0 1 0 22 14 1 24 28
14 38 49 15 14 2 2 0 0 0 0 0 0 4 4 0 1 5 27 50 1 0 0 0 0 0 79 5 0 0 0 0 0 0 0 0 0 0 0 0 4 97 97 100